This is the latest recevied weather packets stored in our database for station/object AD7ZD. If no packets are shown the sender has not sent any weather packets the latest 10 day(s).
| Time | Temp. | Humidity | Pressure | Rain* | Wind** | Luminosity | Snow |
|---|---|---|---|---|---|---|---|
| 1778009291 | 11.67° C | 71% | 1012 hPa | 0 mm | - | 202 W/m² | - |
| 1778008989 | 12.22° C | 72% | 1011.7 hPa | 0 mm | - | 220 W/m² | - |
| 1778008686 | 11.67° C | 73% | 1011.8 hPa | 0 mm | - | 416 W/m² | - |
| 1778008385 | 11.67° C | 73% | 1011.7 hPa | 0 mm | - | 769 W/m² | - |
| 1778008081 | 11.67° C | 76% | 1011.8 hPa | 0 mm | - | 955 W/m² | - |
| 1778007776 | 12.22° C | 75% | 1012 hPa | 0 mm | - | 504 W/m² | - |
| 1778007472 | 11.67° C | 73% | 1011.9 hPa | 0 mm | - | 458 W/m² | - |
| 1778007169 | 11.11° C | 75% | 1011.9 hPa | 0 mm | - | 482 W/m² | - |
| 1778006865 | 11.67° C | 76% | 1012 hPa | 0 mm | - | 336 W/m² | - |
| 1778006563 | 11.11° C | 80% | 1011.8 hPa | 0 mm | - | 401 W/m² | - |
| 1778006259 | 10.56° C | 79% | 1011.9 hPa | 0 mm | - | 324 W/m² | - |
| 1778005956 | 10.56° C | 80% | 1011.9 hPa | 0 mm | - | 240 W/m² | - |
| 1778005653 | 10.56° C | 80% | 1011.7 hPa | 0 mm | - | 286 W/m² | - |
| 1778005350 | 10.56° C | 80% | 1011.7 hPa | 0 mm | - | 281 W/m² | - |
| 1778005046 | 10.56° C | 81% | 1011.6 hPa | 0 mm | - | 262 W/m² | - |
| 1778004744 | 10.56° C | 81% | 1011.4 hPa | 0 mm | - | 245 W/m² | - |
| 1778004440 | 10° C | 81% | 1011.4 hPa | 0 mm | - | 219 W/m² | - |
| 1778004137 | 10° C | 81% | 1011.6 hPa | 0 mm | - | 180 W/m² | - |
| 1778003833 | 10° C | 82% | 1011.6 hPa | 0 mm | - | 119 W/m² | - |
| 1778003530 | 10° C | 83% | 1011.4 hPa | 0 mm | - | 100 W/m² | - |
| 1778003226 | 10° C | 82% | 1011.6 hPa | 0 mm | - | 91 W/m² | - |
| 1778002923 | 10° C | 82% | 1011.4 hPa | 0 mm | - | 106 W/m² | - |
| 1778002619 | 10° C | 83% | 1011.1 hPa | 0 mm | - | 144 W/m² | - |
| 1778002316 | 10° C | 83% | 1010.9 hPa | 0 mm | - | 138 W/m² | - |
| 1778002014 | 9.44° C | 84% | 1011.1 hPa | 0 mm | - | 116 W/m² | - |
* Rain latest hour (hover to see other rain measurements)
** Current wind speed in m/s (hover to see current wind gust speed)